Location: ?
(35.4064°N, 139.3593°E)
Time: 10:22:40
(UTC+00:00)

Meteor 2-10 - Pass Details

Date: 18 April 2024
Orbit: 738 x 866 km, 81.2° (Epoch: 18 May)

Event Time Altitude Azimuth Distance (km) Brightness Sun altitude
Rises 17:17:25 0° 351° (N) 3,424 7.8 -30.7°
Reaches altitude 10° 17:19:50 10° 352° (N) 2,496 7.0 -30.3°
Enters shadow 17:24:59 74° 2° (N) 901 4.3 -29.5°
